Smyrna, TN

12:24 PM CST on November 18, 2017 (GMT -0600)
Smyrna

Weather History for KMQY - November, 2013

Change the Weather History Date:

Thursday, November 7, 2013

  Actual Average Record
Temperature  
Mean Temperature 44 °F -  
Max Temperature 54 °F 59 °F 82 °F (2005)
Min Temperature 32 °F 43 °F 27 °F (2007)
Degree Days  
Heating Degree Days 22    
Moisture  
Dew Point 36 °F    
Average Humidity 77    
Maximum Humidity 100    
Minimum Humidity 36    
Precipitation  
Precipitation 0.06 in - - ()
Sea Level Pressure  
Sea Level Pressure 30.30 in    
Wind  
Wind Speed 12 mph (North)    
Max Wind Speed 18 mph    
Max Gust Speed 24 mph    
Visibility 9 miles    
Events Rain    
Averages and records for this station are not official NWS values.
T = Trace of Precipitation, MM = Missing Value Source: NWS Daily Summary

Daily Weather History Graph

Daily Weather History Graph

Search for Another Location

Airport or City:

Trip Planner

Search our weather history database for the weather conditions in past years. The results will help you decide how hot, cold, wet, or windy it might be!

Date:

Astronomy

Nov. 07, 2013 Rise Set
Actual Time 6:14 AM CST 4:44 PM CST
Civil Twilight 5:47 AM CST 5:11 PM CST
Nautical Twilight 5:17 AM CST 5:41 PM CST
Astronomical Twilight 4:47 AM CST 6:11 PM CST
Moon 10:21 AM CST (11/7) 8:56 PM CST (11/7)
Length of Visible Light 11h 23m
Length of Day
10h 29m
Waxing Crescent, 23% of the Moon is Illuminated
Nov 7
Waxing Crescent
Nov 9
First Quarter
Nov 17
Full
Nov 25
Last Quarter
Dec 2
New

Hourly Weather History & Observations

Time (CST) Temp. Windchill Dew Point Humidity Pressure Visibility Wind Dir Wind Speed Gust Speed Precip Events Conditions
12:10 AM 51.8 °F - 51.8 °F 100% 30.14 in 7.0 mi NNW 13.8 mph - 0.01 in Rain Rain
12:36 AM 48.2 °F - 46.4 °F 93% 30.14 in 7.0 mi North 18.4 mph - 0.02 in Rain Light Rain
12:56 AM 47.8 °F - 46.9 °F 97% 30.17 in 10.0 mi North 17.3 mph - 0.03 in Rain Light Rain
1:12 AM 46.4 °F 39.2 °F 46.4 °F 100% 30.16 in 10.0 mi NNW 18.4 mph - 0.00 in Rain Light Rain
1:56 AM 45.9 °F 39.7 °F 45.9 °F 100% 30.19 in 7.0 mi NNW 13.8 mph - 0.00 in Rain Light Rain
2:56 AM 45.0 °F 38.9 °F 43.9 °F 96% 30.22 in 10.0 mi North 12.7 mph 19.6 mph 0.02 in Rain Light Rain
3:07 AM 44.6 °F 38.1 °F 42.8 °F 93% 30.20 in 10.0 mi North 13.8 mph - 0.00 in Rain Light Rain
3:39 AM 44.6 °F 38.1 °F 42.8 °F 93% 30.21 in 10.0 mi North 13.8 mph - 0.01 in Rain Light Rain
3:56 AM 43.9 °F 36.8 °F 41.9 °F 93% 30.24 in 10.0 mi North 15.0 mph - 0.01 in   Overcast
4:08 AM 44.6 °F 38.1 °F 42.8 °F 93% 30.22 in 10.0 mi North 13.8 mph 23.0 mph N/A   Overcast
4:20 AM 44.6 °F 37.4 °F 42.8 °F 93% 30.22 in 10.0 mi North 16.1 mph - N/A   Overcast
4:56 AM 43.9 °F 36.8 °F 39.9 °F 86% 30.26 in 10.0 mi North 15.0 mph 24.2 mph N/A   Overcast
5:56 AM 43.0 °F 35.4 °F 39.9 °F 89% 30.30 in 10.0 mi North 16.1 mph - N/A   Overcast
6:56 AM 43.0 °F 37.2 °F 38.8 °F 85% 30.34 in 10.0 mi North 10.4 mph - N/A   Overcast
7:56 AM 43.9 °F 36.8 °F 36.9 °F 76% 30.36 in 10.0 mi North 15.0 mph - N/A   Overcast
8:56 AM 45.9 °F 39.7 °F 36.9 °F 71% 30.38 in 10.0 mi North 13.8 mph - N/A   Mostly Cloudy
9:56 AM 47.8 °F - 36.9 °F 66% 30.38 in 10.0 mi North 10.4 mph - N/A   Scattered Clouds
10:56 AM 50.0 °F - 36.9 °F 61% 30.37 in 10.0 mi NNW 13.8 mph - N/A   Partly Cloudy
11:56 AM 50.9 °F - 32.9 °F 50% 30.35 in 10.0 mi North 8.1 mph - N/A   Clear
12:56 PM 52.9 °F - 32.0 °F 45% 30.34 in 10.0 mi NNW 13.8 mph 19.6 mph N/A   Clear
1:56 PM 54.0 °F - 29.1 °F 39% 30.33 in 10.0 mi North 11.5 mph - N/A   Clear
2:56 PM 54.0 °F - 27.1 °F 36% 30.33 in 10.0 mi North 10.4 mph - N/A   Clear
3:56 PM 52.9 °F - 28.0 °F 38% 30.33 in 10.0 mi NNW 10.4 mph - N/A   Clear
4:56 PM 45.9 °F 42.3 °F 29.1 °F 52% 30.34 in 10.0 mi NNW 6.9 mph - N/A   Clear
5:56 PM 45.9 °F 43.6 °F 29.1 °F 52% 30.35 in 10.0 mi NW 4.6 mph - N/A   Clear
6:56 PM 41.0 °F - 30.0 °F 65% 30.36 in 10.0 mi Calm Calm - N/A   Clear
7:56 PM 37.9 °F - 30.0 °F 73% 30.38 in 10.0 mi Calm Calm - N/A   Clear
8:56 PM 36.0 °F - 30.0 °F 79% 30.38 in 10.0 mi Calm Calm - N/A   Clear
9:56 PM 36.0 °F - 30.0 °F 79% 30.39 in 10.0 mi Calm Calm - N/A   Clear
10:32 PM 35.6 °F - 30.2 °F 81% 30.35 in 1.8 mi Calm Calm - N/A   Haze
10:41 PM 35.6 °F - 30.2 °F 81% 30.35 in 3.0 mi Calm Calm - N/A   Haze
10:56 PM 34.0 °F - 30.0 °F 85% 30.39 in 2.5 mi Calm Calm - N/A   Clear
11:03 PM 33.8 °F - 30.2 °F 87% 30.35 in 10.0 mi Calm Calm - N/A   Clear
11:56 PM 32.0 °F - 31.1 °F 96% 30.39 in 10.0 mi Calm Calm - N/A   Clear